This is the latest recevied weather packets stored in our database for station/object W0VI. If no packets are shown the sender has not sent any weather packets the latest 10 day(s).
| Time | Temp. | Humidity | Pressure | Rain* | Wind** | Luminosity | Snow |
|---|---|---|---|---|---|---|---|
| 1787438951 | 24.44° C | 50% | 1019.4 hPa | 0 mm | - | 197 W/m² | - |
| 1787438646 | 24.44° C | 50% | 1019.2 hPa | 0 mm | - | 214 W/m² | - |
| 1787438346 | 24.44° C | 50% | 1019.3 hPa | 0 mm | - | 214 W/m² | - |
| 1787438045 | 24.44° C | 50% | 1019.3 hPa | 0 mm | - | 223 W/m² | - |
| 1787437741 | 23.89° C | 49% | 1019.4 hPa | 0 mm | - | 248 W/m² | - |
| 1787437438 | 24.44° C | 48% | 1019.1 hPa | 0 mm | - | 246 W/m² | - |
| 1787437133 | 24.44° C | 48% | 1019.5 hPa | 0 mm | - | 263 W/m² | - |
| 1787436829 | 23.89° C | 48% | 1019.2 hPa | 0 mm | - | 271 W/m² | - |
| 1787436526 | 24.44° C | 49% | 1019.3 hPa | 0 mm | - | 119 W/m² | - |
| 1787436224 | 24.44° C | 48% | 1019.2 hPa | 0 mm | - | 126 W/m² | - |
| 1787435919 | 24.44° C | 49% | 1019.5 hPa | 0 mm | - | 314 W/m² | - |
| 1787435616 | 25° C | 48% | 1019.4 hPa | 0 mm | - | 327 W/m² | - |
| 1787435312 | 25° C | 49% | 1019.2 hPa | 0 mm | - | 355 W/m² | - |
| 1787435008 | 25° C | 50% | 1019.5 hPa | 0 mm | - | 373 W/m² | - |
| 1787434704 | 25° C | 47% | 1019.8 hPa | 0 mm | - | 353 W/m² | - |
| 1787434400 | 24.44° C | 49% | 1019.5 hPa | 0 mm | - | 359 W/m² | - |
| 1787434095 | 24.44° C | 47% | 1019.5 hPa | 0 mm | - | 384 W/m² | - |
| 1787433791 | 25° C | 47% | 1019.6 hPa | 0 mm | - | 363 W/m² | - |
| 1787433486 | 25° C | 48% | 1019.7 hPa | 0 mm | - | 357 W/m² | - |
| 1787433181 | 25.56° C | 47% | 1019.7 hPa | 0 mm | - | 354 W/m² | - |
| 1787432879 | 25° C | 47% | 1019.6 hPa | 0 mm | - | 403 W/m² | - |
| 1787432578 | 25° C | 46% | 1019.6 hPa | 0 mm | - | 422 W/m² | - |
| 1787432277 | 24.44° C | 47% | 1019.7 hPa | 0 mm | - | 440 W/m² | - |
| 1787431973 | 25° C | 47% | 1019.7 hPa | 0 mm | - | 449 W/m² | - |
| 1787431672 | 25° C | 47% | 1019.6 hPa | 0 mm | - | 460 W/m² | - |
* Rain latest hour (hover to see other rain measurements)
** Current wind speed in m/s (hover to see current wind gust speed)